�������l�o���
Date,Time,MP-1(��Sv/h),MP-2(��Sv/h),MP-3(��Sv/h),MP-4(��Sv/h),MP-5(��Sv/h),MP-6(��Sv/h),MP-7(��Sv/h),MP-8(��Sv/h),����,����(m/s),���J
2022/08/22,00:00,0.597,0.849,0.535,1.029,0.738,0.342,0.592,0.558,�k�k��,4.9,��
2022/08/22,00:10,0.599,0.848,0.538,1.032,0.736,0.341,0.593,0.558,�k�k��,4.6,��
2022/08/22,00:20,0.597,0.849,0.538,1.031,0.738,0.341,0.593,0.559,�k�k��,5.0,��
2022/08/22,00:30,0.597,0.850,0.537,1.031,0.737,0.341,0.593,0.558,�k�k��,5.0,��
2022/08/22,00:40,0.597,0.850,0.537,1.028,0.737,0.341,0.593,0.558,�k�k��,4.8,��
2022/08/22,00:50,0.597,0.847,0.536,1.030,0.737,0.341,0.593,0.558,�k,5.1,��
2022/08/22,01:00,0.596,0.851,0.537,1.026,0.738,0.340,0.591,0.559,�k,4.6,��
2022/08/22,01:10,0.595,0.848,0.535,1.030,0.738,0.342,0.592,0.559,�k�k��,2.5,��
2022/08/22,01:20,0.597,0.849,0.536,1.029,0.737,0.342,0.593,0.558,�k,2.3,��
2022/08/22,01:30,0.597,0.847,0.537,1.030,0.739,0.341,0.593,0.558,�k,4.2,��
2022/08/22,01:40,0.595,0.847,0.536,1.031,0.735,0.341,0.592,0.558,�k,3.6,��
2022/08/22,01:50,0.597,0.848,0.537,1.028,0.736,0.342,0.593,0.557,�k,2.8,��
2022/08/22,02:00,0.595,0.848,0.534,1.029,0.735,0.342,0.593,0.558,�k,2.5,��
2022/08/22,02:10,0.596,0.845,0.535,1.027,0.737,0.343,0.594,0.558,�k,2.5,��
2022/08/22,02:20,0.594,0.847,0.536,1.028,0.736,0.341,0.592,0.557,�k,3.0,��
2022/08/22,02:30,0.595,0.847,0.535,1.028,0.738,0.341,0.592,0.559,�k,2.6,��
2022/08/22,02:40,0.596,0.849,0.535,1.028,0.737,0.340,0.591,0.557,�k,2.9,��
2022/08/22,02:50,0.597,0.848,0.535,1.029,0.735,0.340,0.592,0.557,�k,3.0,��
2022/08/22,03:00,0.595,0.847,0.533,1.027,0.735,0.340,0.593,0.556,�k,3.7,��
2022/08/22,03:10,0.596,0.846,0.536,1.028,0.736,0.340,0.591,0.556,�k,3.8,��
2022/08/22,03:20,0.596,0.848,0.537,1.026,0.737,0.340,0.592,0.556,�k,3.1,��
2022/08/22,03:30,0.596,0.846,0.536,1.026,0.738,0.340,0.591,0.558,�k,4.1,��
2022/08/22,03:40,0.595,0.846,0.536,1.027,0.735,0.339,0.591,0.558,�k,4.7,��
2022/08/22,03:50,0.598,0.846,0.534,1.027,0.736,0.340,0.591,0.556,�k�k��,3.5,��
2022/08/22,04:00,0.595,0.846,0.534,1.030,0.735,0.341,0.591,0.559,�k�k��,4.4,��
2022/08/22,04:10,0.595,0.847,0.535,1.028,0.737,0.341,0.591,0.557,�k�k��,4.3,��
2022/08/22,04:20,0.595,0.848,0.537,1.029,0.734,0.341,0.592,0.558,�k�k��,4.6,��
2022/08/22,04:30,0.596,0.847,0.536,1.030,0.737,0.342,0.591,0.557,�k�k��,4.9,��
2022/08/22,04:40,0.595,0.847,0.536,1.029,0.737,0.340,0.591,0.558,�k�k��,4.7,��
2022/08/22,04:50,0.598,0.849,0.537,1.028,0.737,0.341,0.593,0.558,�k�k��,4.7,��
2022/08/22,05:00,0.595,0.848,0.535,1.028,0.736,0.340,0.592,0.558,�k�k��,4.3,��
2022/08/22,05:10,0.595,0.849,0.538,1.029,0.736,0.341,0.592,0.557,�k�k��,4.4,��
2022/08/22,05:20,0.598,0.849,0.535,1.028,0.736,0.341,0.592,0.558,�k�k��,3.8,��
2022/08/22,05:30,0.596,0.848,0.535,1.027,0.734,0.341,0.593,0.558,�k�k��,4.4,��
2022/08/22,05:40,0.596,0.849,0.537,1.028,0.736,0.342,0.593,0.556,�k,5.4,��
2022/08/22,05:50,0.596,0.847,0.537,1.029,0.734,0.340,0.592,0.558,�k�k��,5.1,��
2022/08/22,06:00,0.598,0.847,0.536,1.029,0.737,0.341,0.593,0.556,�k,5.3,��
2022/08/22,06:10,0.597,0.847,0.537,1.027,0.737,0.340,0.595,0.557,�k,4.8,��
2022/08/22,06:20,0.597,0.846,0.535,1.030,0.735,0.342,0.590,0.556,�k,4.9,��
2022/08/22,06:30,0.597,0.847,0.536,1.029,0.737,0.342,0.594,0.558,�k,4.2,��
2022/08/22,06:40,0.598,0.847,0.537,1.028,0.735,0.340,0.592,0.559,�k,2.9,��
2022/08/22,06:50,0.597,0.847,0.536,1.027,0.736,0.339,0.591,0.559,�k,4.0,��
2022/08/22,07:00,0.595,0.848,0.535,1.028,0.740,0.340,0.592,0.558,�k,4.6,��
2022/08/22,07:10,0.595,0.849,0.534,1.028,0.734,0.340,0.592,0.557,�k,5.5,��
2022/08/22,07:20,0.597,0.848,0.534,1.027,0.735,0.339,0.591,0.557,�k,5.6,��
2022/08/22,07:30,0.596,0.846,0.534,1.029,0.734,0.340,0.592,0.557,�k,5.1,��
2022/08/22,07:40,0.595,0.845,0.535,1.029,0.736,0.339,0.591,0.557,�k�k��,3.5,��
2022/08/22,07:50,0.595,0.845,0.534,1.028,0.735,0.339,0.592,0.556,�k�k��,4.1,��
2022/08/22,08:00,0.594,0.846,0.535,1.030,0.735,0.340,0.590,0.556,�k,2.9,��
2022/08/22,08:10,0.597,0.845,0.534,1.030,0.733,0.340,0.591,0.556,�k�k��,2.9,��
2022/08/22,08:20,0.595,0.845,0.533,1.029,0.734,0.341,0.591,0.556,�k�k��,4.5,��
2022/08/22,08:30,0.595,0.841,0.533,1.028,0.733,0.339,0.592,0.555,�k,3.7,��
2022/08/22,08:40,0.594,0.844,0.535,1.026,0.736,0.340,0.592,0.555,�k,3.3,��
2022/08/22,08:50,0.596,0.845,0.535,1.028,0.736,0.340,0.591,0.554,�k,2.2,��
2022/08/22,09:00,0.595,0.846,0.536,1.029,0.736,0.340,0.591,0.554,�k�k��,3.7,��
2022/08/22,09:10,0.594,0.844,0.534,1.028,0.736,0.341,0.591,0.555,�k�k��,3.8,��
2022/08/22,09:20,0.595,0.845,0.535,1.026,0.737,0.341,0.592,0.556,�k�k��,4.3,��
2022/08/22,09:30,0.596,0.843,0.534,1.030,0.735,0.340,0.591,0.554,�k�k��,4.5,��
2022/08/22,09:40,0.597,0.847,0.533,1.029,0.735,0.340,0.593,0.555,�k,4.4,��
2022/08/22,09:50,0.597,0.846,0.533,1.027,0.737,0.340,0.591,0.554,�k�k��,3.0,��
2022/08/22,10:00,0.596,0.846,0.533,1.027,0.733,0.341,0.591,0.557,�k,3.6,��
2022/08/22,10:10,0.596,0.848,0.536,1.029,0.736,0.341,0.591,0.554,�k,3.5,��
2022/08/22,10:20,0.596,0.849,0.535,1.029,0.734,0.341,0.592,0.557,�k�k��,4.3,��
2022/08/22,10:30,0.596,0.848,0.537,1.028,0.738,0.340,0.591,0.555,�k,4.6,��
2022/08/22,10:40,0.595,0.848,0.536,1.028,0.734,0.340,0.592,0.555,�k,4.3,��
2022/08/22,10:50,0.595,0.847,0.538,1.030,0.738,0.340,0.592,0.555,�k�k��,4.6,��
2022/08/22,11:00,0.597,0.847,0.536,1.028,0.735,0.341,0.591,0.555,�k�k��,4.2,��
2022/08/22,11:10,0.595,0.847,0.537,1.028,0.737,0.340,0.593,0.557,�k�k��,3.6,��
2022/08/22,11:20,0.597,0.848,0.535,1.027,0.737,0.341,0.593,0.555,�k�k��,4.2,��
2022/08/22,11:30,0.596,0.850,0.537,1.028,0.737,0.342,0.593,0.557,�k�k��,3.5,��
2022/08/22,11:40,0.597,0.849,0.537,1.030,0.740,0.340,0.593,0.556,�k�k��,3.7,��
2022/08/22,11:50,0.596,0.849,0.537,1.028,0.739,0.341,0.593,0.555,�k�k��,3.6,��
2022/08/22,12:00,0.599,0.851,0.537,1.030,0.739,0.341,0.593,0.555,�k�k��,3.3,��
2022/08/22,12:10,0.599,0.851,0.537,1.030,0.739,0.341,0.593,0.556,�k,4.3,��
2022/08/22,12:20,0.599,0.851,0.537,1.033,0.739,0.341,0.594,0.557,�k,3.9,��
2022/08/22,12:30,0.597,0.850,0.538,1.032,0.738,0.341,0.593,0.557,�k�k��,4.7,��
2022/08/22,12:40,0.598,0.852,0.536,1.032,0.738,0.341,0.594,0.556,�k�k��,4.8,��
2022/08/22,12:50,0.598,0.849,0.537,1.032,0.739,0.342,0.594,0.557,�k�k��,4.6,��
2022/08/22,13:00,0.597,0.853,0.537,1.034,0.739,0.341,0.595,0.557,�k,4.3,��
2022/08/22,13:10,0.595,0.854,0.536,1.030,0.738,0.340,0.594,0.558,�k,4.2,��
2022/08/22,13:20,0.595,0.851,0.537,1.030,0.740,0.341,0.593,0.556,�k�k��,4.9,��
2022/08/22,13:30,0.598,0.846,0.537,1.033,0.739,0.341,0.594,0.557,�k�k��,4.5,��
2022/08/22,13:40,0.599,0.851,0.537,1.031,0.740,0.341,0.594,0.557,�k�k��,4.1,��
2022/08/22,13:50,0.598,0.850,0.538,1.033,0.739,0.340,0.593,0.556,�k,4.3,��
2022/08/22,14:00,0.596,0.851,0.536,1.034,0.739,0.339,0.593,0.558,�k�k��,4.5,��
2022/08/22,14:10,0.596,0.852,0.536,1.034,0.738,0.340,0.592,0.556,�k�k��,4.3,��
2022/08/22,14:20,0.597,0.850,0.536,1.033,0.738,0.340,0.594,0.556,�k�k��,3.4,��
2022/08/22,14:30,0.599,0.848,0.535,1.031,0.738,0.339,0.594,0.558,�k,3.1,��
2022/08/22,14:40,0.598,0.850,0.538,1.030,0.739,0.341,0.593,0.556,�k,2.8,��
2022/08/22,14:50,0.599,0.852,0.537,1.032,0.740,0.341,0.594,0.559,�k,3.5,��
2022/08/22,15:00,0.599,0.853,0.539,1.033,0.741,0.340,0.594,0.558,�k�k��,2.3,��
2022/08/22,15:10,0.599,0.851,0.540,1.032,0.739,0.341,0.596,0.558,�k,2.3,��
2022/08/22,15:20,0.600,0.852,0.538,1.033,0.740,0.341,0.594,0.559,�k,2.8,��
2022/08/22,15:30,0.598,0.853,0.536,1.032,0.741,0.341,0.594,0.559,�k,3.3,��
2022/08/22,15:40,0.599,0.853,0.538,1.033,0.740,0.340,0.595,0.559,�k,3.7,��
2022/08/22,15:50,0.598,0.851,0.538,1.034,0.740,0.340,0.595,0.558,�k,3.0,��
2022/08/22,16:00,0.599,0.852,0.538,1.032,0.741,0.340,0.594,0.558,�k,3.0,��
2022/08/22,16:10,0.597,0.852,0.538,1.033,0.739,0.341,0.595,0.558,�k,3.4,��
2022/08/22,16:20,0.599,0.852,0.539,1.033,0.739,0.341,0.594,0.559,�k,3.0,��
2022/08/22,16:30,0.598,0.851,0.539,1.032,0.739,0.339,0.596,0.559,�k,3.0,��
2022/08/22,16:40,0.597,0.853,0.536,1.032,0.739,0.340,0.594,0.557,�k,4.5,��
2022/08/22,16:50,0.600,0.852,0.537,1.030,0.738,0.340,0.592,0.558,�k�k��,3.5,��
2022/08/22,17:00,0.594,0.854,0.536,1.033,0.738,0.341,0.596,0.561,�k,3.6,��
2022/08/22,17:10,0.596,0.854,0.536,1.033,0.740,0.340,0.595,0.558,�k,3.1,��
2022/08/22,17:20,0.597,0.855,0.537,1.033,0.740,0.342,0.596,0.560,�k,3.5,��
2022/08/22,17:30,0.598,0.853,0.536,1.032,0.741,0.342,0.597,0.559,�k,3.7,��
2022/08/22,17:40,0.597,0.853,0.537,1.034,0.739,0.341,0.596,0.558,�k,3.6,��
2022/08/22,17:50,0.597,0.852,0.536,1.034,0.739,0.342,0.596,0.557,�k�k��,2.5,��
2022/08/22,18:00,0.597,0.852,0.538,1.034,0.739,0.341,0.595,0.558,�k,3.2,��
2022/08/22,18:10,0.598,0.853,0.536,1.035,0.741,0.342,0.595,0.558,�k,2.9,��
2022/08/22,18:20,0.600,0.851,0.536,1.033,0.740,0.340,0.596,0.559,�k,2.6,��
2022/08/22,18:30,0.597,0.853,0.536,1.033,0.740,0.343,0.594,0.559,�k�k��,1.7,��
2022/08/22,18:40,0.597,0.852,0.537,1.034,0.737,0.341,0.595,0.557,�k�k��,1.9,��
2022/08/22,18:50,0.599,0.854,0.538,1.034,0.740,0.342,0.596,0.558,�k�k��,1.5,��
2022/08/22,19:00,0.599,0.854,0.537,1.034,0.739,0.342,0.594,0.558,�k�k��,1.5,��
2022/08/22,19:10,0.598,0.851,0.537,1.033,0.740,0.342,0.594,0.560,�k�k��,1.5,��
2022/08/22,19:20,0.599,0.853,0.538,1.033,0.739,0.342,0.595,0.560,�k�k��,1.7,��
2022/08/22,19:30,0.598,0.852,0.539,1.031,0.739,0.341,0.596,0.559,�k��,2.0,��
2022/08/22,19:40,0.599,0.856,0.537,1.033,0.740,0.342,0.595,0.560,�k��,1.4,��
2022/08/22,19:50,0.599,0.854,0.538,1.033,0.737,0.342,0.594,0.560,�k�k��,1.9,��
2022/08/22,20:00,0.599,0.855,0.538,1.033,0.739,0.342,0.595,0.560,�k��,1.9,��
2022/08/22,20:10,0.600,0.854,0.536,1.033,0.740,0.342,0.594,0.558,�k��,1.7,��
2022/08/22,20:20,0.599,0.855,0.537,1.033,0.739,0.342,0.594,0.560,�k��,1.7,��
2022/08/22,20:30,0.600,0.853,0.537,1.033,0.740,0.343,0.594,0.560,�k��,1.4,��
2022/08/22,20:40,0.600,0.855,0.537,1.032,0.740,0.342,0.596,0.559,�k��,1.4,��
2022/08/22,20:50,0.601,0.853,0.539,1.034,0.739,0.341,0.596,0.559,���k��,0.6,��
2022/08/22,21:00,0.599,0.853,0.538,1.033,0.738,0.342,0.595,0.559,-,CALM,��
2022/08/22,21:10,0.600,0.852,0.537,1.032,0.741,0.341,0.595,0.558,���쐼,0.9,��
2022/08/22,21:20,0.600,0.851,0.537,1.033,0.740,0.343,0.594,0.560,�쐼,1.4,��
2022/08/22,21:30,0.599,0.854,0.538,1.033,0.740,0.341,0.594,0.559,��,1.2,��
2022/08/22,21:40,0.600,0.854,0.538,1.033,0.741,0.341,0.596,0.559,�쐼,0.9,��
2022/08/22,21:50,0.598,0.854,0.536,1.034,0.739,0.342,0.596,0.559,��쐼,2.0,��
2022/08/22,22:00,0.598,0.853,0.536,1.032,0.740,0.342,0.595,0.559,��쐼,2.0,��
2022/08/22,22:10,0.600,0.852,0.536,1.033,0.740,0.341,0.595,0.558,��쐼,2.3,��
2022/08/22,22:20,0.599,0.852,0.538,1.032,0.740,0.340,0.594,0.559,��쐼,2.6,��
2022/08/22,22:30,0.599,0.855,0.538,1.035,0.741,0.342,0.595,0.559,��쐼,1.7,��
2022/08/22,22:40,0.601,0.853,0.538,1.031,0.740,0.343,0.596,0.559,��,2.5,��
2022/08/22,22:50,0.601,0.854,0.537,1.032,0.739,0.342,0.595,0.560,��쐼,1.4,��
2022/08/22,23:00,0.597,0.854,0.538,1.034,0.739,0.342,0.594,0.558,��쐼,1.4,��
2022/08/22,23:10,0.598,0.852,0.537,1.032,0.738,0.342,0.594,0.559,��,2.3,��
2022/08/22,23:20,0.601,0.851,0.537,1.033,0.739,0.343,0.595,0.559,��쓌,2.5,��
2022/08/22,23:30,0.599,0.853,0.539,1.032,0.740,0.342,0.595,0.560,��,1.7,��
2022/08/22,23:40,0.599,0.854,0.537,1.033,0.739,0.343,0.596,0.560,��쐼,1.1,��
2022/08/22,23:50,0.598,0.853,0.538,1.033,0.742,0.343,0.595,0.559,��,1.7,��
